Location: Champignolles
(47.0543°N, 4.5663°E)
Time: 08:38:13
(UTC+00:00)

ISS - Pass Details

Date: 02 December 2021
Orbit: 413 x 422 km, 51.6° (Epoch: 27 January)

Event Time Altitude Azimuth Distance (km) Brightness Sun altitude
Rises 18:20:07 0° 295° (WNW) 2,386 1.0 -24.1°
Reaches altitude 10° 18:22:14 10° 295° (WNW) 1,516 -0.2 -24.5°
Enters shadow 18:24:14 33° 292° (WNW) 737 -2.1 -24.8°
